TimeCST,TemperatureF,Dew PointF,Humidity,Sea Level PressureIn,VisibilityMPH,Wind Direction,Wind SpeedMPH,Gust SpeedMPH,PrecipitationIn,Events,Conditions,WindDirDegrees,DateUTC
12:15 AM,-8.9,-13.9,79,30.37,10.0,NNW,8.1,-,N/A,,Clear,330,2013-02-20 06:15:00
12:35 AM,-9.4,-14.3,79,30.37,10.0,NW,6.9,-,N/A,,Clear,310,2013-02-20 06:35:00
12:55 AM,-9.4,-14.4,78,30.37,10.0,NW,5.8,-,N/A,,Clear,320,2013-02-20 06:55:00
1:15 AM,-9.6,-14.6,78,30.38,10.0,NNW,8.1,-,N/A,,Clear,330,2013-02-20 07:15:00
1:35 AM,-9.8,-14.8,78,30.38,10.0,NW,6.9,-,N/A,,Clear,320,2013-02-20 07:35:00
1:55 AM,-9.8,-14.8,78,30.38,10.0,NNW,8.1,-,N/A,,Clear,340,2013-02-20 07:55:00
2:15 AM,-10.3,-15.0,80,30.38,10.0,NNW,6.9,-,N/A,,Clear,340,2013-02-20 08:15:00
2:54 AM,-10.5,-15.3,79,30.37,10.0,NNW,6.9,-,N/A,,Clear,340,2013-02-20 08:54:00
3:15 AM,-10.7,-15.7,78,30.37,10.0,NNW,4.6,-,N/A,,Clear,330,2013-02-20 09:15:00
3:35 AM,-10.7,-15.7,78,30.36,10.0,North,6.9,-,N/A,,Clear,360,2013-02-20 09:35:00
3:54 AM,-11.0,-15.7,80,30.36,10.0,North,6.9,-,N/A,,Clear,360,2013-02-20 09:54:00
4:15 AM,-11.0,-15.7,80,30.36,10.0,North,9.2,-,N/A,,Clear,360,2013-02-20 10:15:00
4:35 AM,-11.4,-16.1,80,30.36,10.0,North,6.9,-,N/A,,Clear,360,2013-02-20 10:35:00
4:54 AM,-11.6,-16.1,80,30.36,10.0,North,6.9,-,N/A,,Clear,10,2013-02-20 10:54:00
5:15 AM,-11.7,-16.4,80,30.36,10.0,NNW,5.8,-,N/A,,Clear,340,2013-02-20 11:15:00
5:35 AM,-11.4,-16.1,80,30.37,10.0,NW,5.8,-,N/A,,Clear,310,2013-02-20 11:35:00
5:54 AM,-12.1,-16.6,80,30.36,10.0,North,8.1,-,N/A,,Clear,360,2013-02-20 11:54:00
6:15 AM,-11.6,-16.1,80,30.35,10.0,North,6.9,-,N/A,,Clear,10,2013-02-20 12:15:00
6:35 AM,-11.9,-16.4,80,30.35,10.0,North,8.1,-,N/A,,Clear,10,2013-02-20 12:35:00
6:54 AM,-12.1,-16.8,80,30.36,10.0,NNW,3.5,-,N/A,,Clear,330,2013-02-20 12:54:00
7:15 AM,-12.3,-17.1,79,30.36,10.0,NW,3.5,-,N/A,,Clear,310,2013-02-20 13:15:00
7:35 AM,-11.4,-16.2,79,30.37,10.0,West,5.8,-,N/A,,Clear,280,2013-02-20 13:35:00
7:54 AM,-11.2,-16.1,79,30.37,10.0,WNW,5.8,-,N/A,,Clear,300,2013-02-20 13:54:00
8:35 AM,-9.4,-14.8,77,30.37,10.0,North,4.6,-,N/A,,Clear,350,2013-02-20 14:35:00
8:55 AM,-8.7,-14.1,77,30.37,10.0,North,3.5,-,N/A,,Clear,350,2013-02-20 14:55:00
9:15 AM,-7.6,-13.2,77,30.37,10.0,North,3.5,-,N/A,,Clear,360,2013-02-20 15:15:00
9:35 AM,-5.4,-11.4,76,30.37,10.0,NNE,4.6,-,N/A,,Clear,30,2013-02-20 15:35:00
9:55 AM,-3.8,-9.6,76,30.36,10.0,NE,5.8,-,N/A,,Clear,50,2013-02-20 15:55:00
10:15 AM,-2.2,-8.1,76,30.37,10.0,ENE,5.8,-,N/A,,Clear,70,2013-02-20 16:15:00
10:35 AM,-0.9,-6.9,76,30.37,10.0,East,4.6,-,N/A,,Clear,90,2013-02-20 16:35:00
10:55 AM,1.0,-5.6,74,30.37,10.0,East,6.9,-,N/A,,Clear,80,2013-02-20 16:55:00
11:14 AM,2.5,-4.2,74,30.36,10.0,East,6.9,-,N/A,,Clear,90,2013-02-20 17:14:00
11:35 AM,2.7,-4.4,73,30.36,10.0,East,5.8,-,N/A,,Clear,80,2013-02-20 17:35:00
11:55 AM,3.9,-2.9,73,30.36,10.0,East,5.8,-,N/A,,Clear,80,2013-02-20 17:55:00
12:15 PM,4.6,-2.2,73,30.36,10.0,East,5.8,-,N/A,,Clear,80,2013-02-20 18:15:00
12:35 PM,5.9,-0.9,73,30.36,10.0,ESE,5.8,-,N/A,,Clear,110,2013-02-20 18:35:00
1:15 PM,8.1,0.9,72,30.36,10.0,East,6.9,-,N/A,,Clear,100,2013-02-20 19:15:00
1:35 PM,9.3,2.3,73,30.35,10.0,ESE,5.8,-,N/A,,Clear,110,2013-02-20 19:35:00
1:55 PM,10.2,2.8,72,30.34,10.0,ESE,5.8,-,N/A,,Clear,120,2013-02-20 19:55:00
2:15 PM,11.3,3.7,72,30.33,10.0,East,8.1,-,N/A,,Clear,90,2013-02-20 20:15:00
3:15 PM,12.7,5.5,73,30.31,10.0,East,8.1,-,N/A,,Clear,100,2013-02-20 21:15:00
3:35 PM,13.1,5.5,72,30.30,10.0,East,5.8,-,N/A,,Clear,90,2013-02-20 21:35:00
3:56 PM,14.2,6.1,70,30.30,10.0,East,9.2,-,N/A,,Clear,90,2013-02-20 21:56:00
4:15 PM,13.5,6.4,74,30.30,10.0,East,9.2,-,N/A,,Clear,80,2013-02-20 22:15:00
4:35 PM,13.1,6.6,75,30.30,10.0,ENE,9.2,-,N/A,,Clear,60,2013-02-20 22:35:00
4:55 PM,12.6,6.8,78,30.30,10.0,East,10.4,-,N/A,,Clear,80,2013-02-20 22:55:00
5:15 PM,12.2,7.3,81,30.30,10.0,ENE,10.4,-,N/A,,Clear,70,2013-02-20 23:15:00
5:35 PM,11.8,7.7,83,30.29,10.0,ENE,10.4,-,N/A,,Clear,70,2013-02-20 23:35:00
5:54 PM,10.9,7.0,84,30.29,10.0,ENE,10.4,-,N/A,,Clear,60,2013-02-20 23:54:00
6:15 PM,10.4,6.8,85,30.29,10.0,ENE,11.5,-,N/A,,Clear,60,2013-02-21 00:15:00
6:35 PM,9.9,6.3,85,30.28,10.0,ENE,12.7,-,N/A,,Clear,60,2013-02-21 00:35:00
6:55 PM,9.0,5.5,86,30.28,10.0,ENE,10.4,-,N/A,,Clear,60,2013-02-21 00:55:00
7:15 PM,7.9,5.0,88,30.28,10.0,NE,10.4,-,N/A,,Clear,50,2013-02-21 01:15:00
7:35 PM,7.3,4.1,87,30.28,10.0,ENE,11.5,-,N/A,,Clear,60,2013-02-21 01:35:00
7:55 PM,7.3,4.1,87,30.28,10.0,East,9.2,-,N/A,,Clear,80,2013-02-21 01:55:00
8:15 PM,6.8,3.2,85,30.28,10.0,ENE,11.5,-,N/A,,Clear,70,2013-02-21 02:15:00
8:35 PM,6.6,3.0,85,30.28,10.0,East,8.1,-,N/A,,Scattered Clouds,80,2013-02-21 02:35:00
8:55 PM,6.6,3.0,85,30.28,10.0,ENE,9.2,-,N/A,,Scattered Clouds,70,2013-02-21 02:55:00
9:14 PM,6.4,3.0,86,30.28,10.0,ENE,8.1,-,N/A,,Scattered Clouds,70,2013-02-21 03:14:00
9:35 PM,6.4,3.0,86,30.28,10.0,East,8.1,-,N/A,,Clear,80,2013-02-21 03:35:00
9:55 PM,6.4,3.0,86,30.28,10.0,East,9.2,-,N/A,,Scattered Clouds,80,2013-02-21 03:55:00
10:15 PM,6.6,3.0,85,30.29,10.0,East,8.1,-,N/A,,Scattered Clouds,100,2013-02-21 04:15:00
10:35 PM,6.8,3.0,84,30.28,10.0,East,6.9,-,N/A,,Scattered Clouds,90,2013-02-21 04:35:00
10:55 PM,7.5,3.4,83,30.28,10.0,East,8.1,-,N/A,,Overcast,90,2013-02-21 04:55:00
11:15 PM,7.5,3.6,84,30.28,10.0,East,6.9,-,N/A,,Overcast,90,2013-02-21 05:15:00
11:35 PM,7.7,3.7,84,30.28,10.0,ESE,6.9,-,N/A,,Mostly Cloudy,110,2013-02-21 05:35:00
11:55 PM,8.2,3.9,83,30.28,10.0,East,5.8,-,N/A,,Mostly Cloudy,100,2013-02-21 05:55:00